{"data":{"norad_id":33433,"intl_designator":"2008-056A","name":"SHIYAN-3 (SY-3)","alt_names":[],"object_type":"PAYLOAD","status":"ACTIVE","operator":null,"country":"PRC","launch_date":"2008-11-05","launch_site_code":"JSC","launch_vehicle":null,"mission":null,"orbit_class":"UNKNOWN","rcs_meters":0.7657,"size_class":null,"mass_kg":null,"dimensions":null,"purposes":[],"wikipedia_slug":null,"has_3d_model":false,"image_url":null,"decayed_at":null,"tle_current":{"epoch":"2026-05-24T23:33:58.791744Z","epoch_age_seconds":79722,"freshness":"FRESH","line1":"1 33433U 08056A   26144.98193046  .00000103  00000+0  56193-4 0  9993","line2":"2 33433  98.6076 171.7511 0013234 197.7305 162.3417 14.30793362915481","mean_motion":14.30793362,"eccentricity":0.0013234,"inclination_deg":98.6076,"raan_deg":171.7511,"arg_perigee_deg":197.7305,"mean_anomaly_deg":162.3417,"bstar":5.6193e-5,"rev_number":91548,"period_min":100.64346384632,"perigee_km":779.59506790146,"apogee_km":798.56525828874,"semimajor_km":7167.2171630951,"source":"CELESTRAK","updated_at":"2026-05-25T13:37:55.152614Z"}}}